sat.trackr.live / text

‹ back to catalog

STARLINK-31605

NORAD 59348 · 2024-060A

PAYLOAD ACTIVE UNKNOWN

§ Identity

Operator
Country
US
Launch date
2024-03-31
Launch site
AFETR
Launch vehicle
Mass (kg)
RCS (m²)

Purposes: comms

External: N2YO · Heavens-Above · Gunter

§ Orbital elements

Epoch: 2026-09-19T22:28:43.597344Z

Period
94.27 min
Inclination
42.9993°
Eccentricity
0.0001087
Mean motion
15.27562520 rev/d
Perigee alt
482.4 km
Apogee alt
483.8 km
Semi-major
6,861.2 km
B*
-2.7265e-5
RAAN
232.1921°
Arg perigee
287.3162°
Mean anomaly
72.7571°
Rev number
13,983

§ Raw data

STARLINK-316051 59348U 24060A   26262.93661571 -.00001012  00000+0 -27265-4 0  99982 59348  42.9993 232.1921 0001087 287.3162  72.7571 15.27562520139830

JSON: /api/v1/satellites/59348 · /tle

For live sub-satellite position, see the globe view (requires WebGL).

§ Visibility from observer

Set your observer location to see the next 7 days of passes ≥ 10°. The values pass through the URL so the page stays shareable.

No JS? Fill the form by hand. The geolocation button needs JavaScript.